"Pseudo-MPEC" for P116a0K

Created 2020 Sep 17 15:07:36 UT using Find_Orb

Click here for an explanation of pseudo-MPECs

 
 Astrometry: 
     P116a0K  C2020 09 15qBBel`AstrometryD#]:,*m$cObsN4JAsRVnG#/qN,mmx.l!k,bOF51
     P116a0K  C2020 09 15y@8((e(0T-QM_aA-?+Xm7K;iY-D$9,Slredacted;Lkt.1W?edp8F51
     P116a0K  C2020 09 15#230Qrhxcn9RMw,m)__0+4k]'/.s2@`wK3?#v3=);qGec`$sk8l-F51
     P116a0K ^C2020 09 16.31644123 33 53.406+04 33 24.67   ~9GNM 21.74GVNEOCP568
     P116a0K ^C2020 09 16.31833723 33 52.995+04 33 30.91   ~9GNM 21.45GVNEOCP568
     P116a0K ^C2020 09 16.31928523 33 52.790+04 33 33.99   ~9GNM 21.76GVNEOCP568
     P116a0K KC2020 09 17]OhF7;YWVclick0\iO`?=WH2NN39ls?e01LH;;nR0'dfkF/u,O8c711
     P116a0K KC2020 09 17w$here87+rd#7O4#6q^J'f4H1[W,g,xQ^CdmN62Rfor'a@*=Vh:M711
     P116a0K KC2020 09 17JZarlvORd6Qot-88explanationU@NgrUN8:FHh=C8Q+dw[nPE*[711
     P116a0K  C2020 09 17.22489 23 30 47.03 +05 23 09.5    ~9H5q 21.5 GVNEOCPV06
     P116a0K  C2020 09 17.22845 23 30 46.22 +05 23 21.2    ~9H5q 21.8 GVNEOCPV06
     P116a0K  C2020 09 17.23200 23 30 45.44 +05 23 33.3    ~9H5q 21.4 GVNEOCPV06
     P116a0K  C2020 09 17.23556 23 30 44.96 +05 23 40.2    ~9H5q       VNEOCPV06
     P116a0K KC2020 09 17nXh`pC'x0y-9lG9n'eatqF^n(Rx'6YvH\rycp0=$#c%1CwQ_qH+0H21
     P116a0K KC2020 09 173booS(k!*'t*EjnbHq%NgjKA06iF`)bURo]CqBKkLp5t28Ek@25kH21
     P116a0K KC2020 09 17*WtFrt`U];bRS+#u0HGZ8AFP@kp,';6^q1^C+EyB:;OmFRh1UiEmH21

Station data:
(568) Mauna Kea  (N19.826116 W155.472200)  US/Hawaii.
(711) McDonald Observatory, Fort Davis  (N30.671481 W104.021500)  US/Texas.
   0.76-m f/3.0 reflector.
(F51) Pan-STARRS 1, Haleakala  (N20.707235 W156.255910)  US/Hawaii.
   Observers N. Primak, A. Schultz, S. Watters, J. Thiel, T. Goggia. Measurer
   PS1 Science Consortium. 1.8-m Ritchey-Chrétien + CCD.
(H21) Astronomical Research Observatory, Westfield  (N39.483057 W87.968270)
   US/Illinois. 0.76-m f/3.0 astrograph + CCD.
(V06) Catalina Sky Survey-Kuiper  (N32.416847 W110.732550)  US/Arizona.
   Observers T. A. Pruyne, B. M. Africano, E. J. Christensen, G. A. Farneth,
   D. C. Fuls, A. R. Gibbs, A. D. Grauer, H. Gröller, J. A. Johnson, R. A.
   Kowalski, S. M. Larson, G. J. Leonard, D. Rankin, R. L. Seaman, F. C.
   Shelly. 1.55-m reflector + CCD.

Orbital elements:  P116a0K
   Perihelion 2020 Dec 9.645251 +/- 0.196 TT = 15:29:09 (JD 2459193.145251)
Epoch 2020 Sep 17.0 TT = JDT 2459109.5   Earth MOID: 0.1418   Ma: 0.0975
M 303.10626219 +/- 0.8              (J2000 ecliptic)          AutoNEOCP
n   0.68017893 +/- 0.00888          Peri.   85.41204 +/- 0.30
a   1.28052264 +/- 0.0111           Node   349.12023 +/- 0.037
e   0.2115035 +/- 0.00711           Incl.   11.92223 +/- 0.32
P   1.45/529.26d           H 24.9   G  0.15   U  9.6  
q 1.00968760 +/- 0.00239    Q 1.55135768 +/- 0.0225
From 16 observations 2020 Sept. 15-17 (45.1 hr); mean residual 1".18
Residuals in arcseconds: 
200915 F51  .19-  .08+    200917 711  .53-  .06+    200917 V06  4.3+  4.6-    
200915 F51  .25+  .08-    200917 711  .77-  .77+    200917 H21  .17-  .94+    
200915 F51  .00   .05+    200917 711  .65-  .36+    200917 H21  .01-  .78+    
200916 568  .03-  .03-    200917 V06  .39-  .38+    200917 H21  .42-  .27+    
200916 568  .04-  .00     200917 V06  .60-  .18+    
200916 568  .03-  .02-    200917 V06  .39-  .41+    

Ephemerides (geocentric):
Date (UTC) HH   RA              Dec         delta   r     elong  mag " sig PA
---- -- -- --  -------------   -----------  ------ ------ -----  --- ---- ---
2020 09 17 15  23 29 22.346   +05 45 51.10  .17426 1.1777 171.7 22.0 .410 172
2020 09 17 16  23 29 13.596   +05 48 11.24  .17415 1.1775 171.6 22.0 .379 176
2020 09 17 17  23 29 04.835   +05 50 31.50  .17404 1.1774 171.6 22.0 .349   0
2020 09 17 18  23 28 56.063   +05 52 51.90  .17394 1.1773 171.5 22.0 .321   6
2020 09 17 19  23 28 47.280   +05 55 12.42  .17383 1.1771 171.5 22.0 .295  13
2020 09 17 20  23 28 38.486   +05 57 33.07  .17373 1.1770 171.4 22.0 .274  21
2020 09 17 21  23 28 29.681   +05 59 53.86  .17362 1.1769 171.4 22.0 .258  31
2020 09 17 22  23 28 20.865   +06 02 14.77  .17352 1.1767 171.3 22.0 .251  42
2020 09 17 23  23 28 12.039   +06 04 35.81  .17341 1.1766 171.3 22.0 .254  54
2020 09 18 00  23 28 03.201   +06 06 56.98  .17331 1.1764 171.2 22.0 .267  65
2020 09 18 01  23 27 54.352   +06 09 18.27  .17321 1.1763 171.2 22.0 .290  75
2020 09 18 02  23 27 45.493   +06 11 39.70  .17310 1.1762 171.1 22.0 .322  84
2020 09 18 03  23 27 36.623   +06 14 01.25  .17300 1.1760 171.1 22.0 .361  91
2020 09 18 04  23 27 27.742   +06 16 22.92  .17290 1.1759 171.0 22.0 .406  97
2020 09 18 05  23 27 18.850   +06 18 44.72  .17280 1.1758 171.0 22.0 .456 102
2020 09 18 06  23 27 09.948   +06 21 06.65  .17269 1.1756 170.9 22.0 .510 106
2020 09 18 07  23 27 01.035   +06 23 28.71  .17259 1.1755 170.8 22.0 .567 109
2020 09 18 08  23 26 52.111   +06 25 50.88  .17249 1.1754 170.8 22.0 .627 112
2020 09 18 09  23 26 43.176   +06 28 13.19  .17239 1.1752 170.7 22.0 .690 114
2020 09 18 10  23 26 34.231   +06 30 35.61  .17229 1.1751 170.7 22.0 .756 116
2020 09 18 11  23 26 25.275   +06 32 58.16  .17219 1.1750 170.6 22.0 .824 118
2020 09 18 12  23 26 16.309   +06 35 20.84  .17209 1.1748 170.6 22.0 .895 119
2020 09 18 13  23 26 07.332   +06 37 43.64  .17199 1.1747 170.5 22.0 .967 121
2020 09 18 14  23 25 58.344   +06 40 06.56  .17189 1.1746 170.5 22.0 1.04 122
2020 09 18 15  23 25 49.346   +06 42 29.60  .17179 1.1744 170.4 22.0 1.12 123
2020 09 18 16  23 25 40.338   +06 44 52.76  .17169 1.1743 170.3 22.0 1.20 124
2020 09 18 17  23 25 31.319   +06 47 16.05  .17159 1.1742 170.3 22.0 1.28 124
2020 09 18 18  23 25 22.289   +06 49 39.45  .17149 1.1740 170.2 22.0 1.36 125
2020 09 18 19  23 25 13.249   +06 52 02.98  .17139 1.1739 170.2 22.0 1.45 126
2020 09 18 20  23 25 04.199   +06 54 26.62  .17130 1.1738 170.1 22.0 1.53 126
2020 09 18 21  23 24 55.138   +06 56 50.39  .17120 1.1736 170.0 22.0 1.62 127
2020 09 18 22  23 24 46.067   +06 59 14.27  .17110 1.1735 170.0 22.0 1.71 127
2020 09 18 23  23 24 36.985   +07 01 38.28  .17100 1.1734 169.9 22.0 1.81 128
2020 09 19 00  23 24 27.893   +07 04 02.40  .17091 1.1732 169.9 22.0 1.90 128
2020 09 19 01  23 24 18.791   +07 06 26.64  .17081 1.1731 169.8 22.0 2.00 129
2020 09 19 02  23 24 09.679   +07 08 51.00  .17071 1.1730 169.7 22.0 2.10 129
2020 09 19 03  23 24 00.556   +07 11 15.47  .17062 1.1728 169.7 22.0 2.20 129
2020 09 19 04  23 23 51.423   +07 13 40.07  .17052 1.1727 169.6 22.0 2.30 130
2020 09 19 05  23 23 42.280   +07 16 04.77  .17043 1.1726 169.6 22.0 2.40 130
2020 09 19 06  23 23 33.127   +07 18 29.60  .17033 1.1724 169.5 22.0 2.51 130
2020 09 19 07  23 23 23.963   +07 20 54.54  .17024 1.1723 169.4 22.0 2.62 131
2020 09 19 08  23 23 14.790   +07 23 19.59  .17014 1.1721 169.4 22.0 2.73 131
2020 09 19 09  23 23 05.606   +07 25 44.76  .17005 1.1720 169.3 22.0 2.84 131
2020 09 19 10  23 22 56.412   +07 28 10.04  .16995 1.1719 169.2 22.0 2.95 131
2020 09 19 11  23 22 47.209   +07 30 35.44  .16986 1.1717 169.2 22.0 3.07 131
2020 09 19 12  23 22 37.995   +07 33 00.94  .16977 1.1716 169.1 22.0 3.19 132
2020 09 19 13  23 22 28.771   +07 35 26.57  .16967 1.1715 169.1 22.0 3.31 132
2020 09 19 14  23 22 19.537   +07 37 52.30  .16958 1.1713 169.0 22.0 3.43 132